User: anonymous   Login
Location: Aressy
(43.2833°N, 0.3167°W)
Time: 20:13:26
(UTC+00:00)
Language:

Helios 1A Rocket - Orbit

View from above orbital plane
View from above orbital plane
View from above satellite
View from above satellite

Ground track
Ground track

The orbit data is extracted from the following two-line orbital elements,

1 23608U 95033D   21112.17174529  .00000903  00000-0  82761-4 0  9992
2 23608  98.2976 149.1842 0014947 302.4369  57.5405 14.97644219397959
Epoch (UTC): 22 April 2021 04:07:18
Eccentricity: 0.0014947
inclination: 98.2976°
perigee height: 564 km
apogee height: 584 km
right ascension of ascending node: 149.1842°
argument of perigee: 302.4369°
revolutions per day: 14.97644219
mean anomaly at epoch: 57.5405°
orbit number at epoch: 39795

The dashed part of the orbit path shows where the satellite is in the earth's shadow,  

DLR